DW7857 Weather Reports


Display with metric or nautical units.
time (UTC)temp
F
wind
direction
speed
MPH
gust
MPH
rain 1hr
in
rain 24hr
in
rain mn
in
humidity
%
barometer
mb
20200919182023 68 43 5.0 8.0 0.00 0.00 0.00 58 1004.0
20200919181519 68 37 5.0 8.0 0.00 0.00 0.00 59 1004.2
20200919181005 68 38 4.0 7.0 0.00 0.00 0.00 59 1004.1
20200919180511 68 36 4.0 6.0 0.00 0.00 0.00 59 1004.0
20200919180019 68 25 5.0 9.0 0.00 0.00 0.00 59 1003.9
20200919175509 68 39 5.0 9.0 0.00 0.00 0.00 58 1003.8
20200919175011 68 48 5.0 9.0 0.00 0.00 0.00 58 1004.0
20200919174514 69 41 5.0 8.0 0.00 0.00 0.00 57 1004.1
20200919174011 69 44 5.0 8.0 0.00 0.00 0.00 57 1003.7
20200919173505 69 48 5.0 8.0 0.00 0.00 0.00 57 1003.6
20200919173017 69 38 5.0 8.0 0.00 0.00 0.00 57 1003.5
20200919172507 70 34 6.0 12.0 0.00 0.00 0.00 56 1003.8
20200919172024 70 44 6.0 12.0 0.00 0.00 0.00 55 1003.7
20200919171526 70 56 5.0 10.0 0.00 0.00 0.00 55 1003.5
20200919171016 70 44 6.0 10.0 0.00 0.00 0.00 55 1003.5
20200919170511 70 26 7.0 12.0 0.00 0.00 0.00 54 1003.5
20200919170019 70 31 7.0 12.0 0.00 0.00 0.00 54 1003.3
20200919165508 70 46 7.0 13.0 0.00 0.00 0.00 54 1003.2
20200919165010 70 46 7.0 13.0 0.00 0.00 0.00 54 1003.4
20200919164520 71 47 7.0 11.0 0.00 0.00 0.00 54 1003.4
20200919164011 71 61 7.0 10.0 0.00 0.00 0.00 54 1003.3
20200919163506 71 38 7.0 10.0 0.00 0.00 0.00 54 1003.2
20200919163021 70 37 6.0 10.0 0.00 0.00 0.00 54 1003.2
20200919162509 70 57 5.0 8.0 0.00 0.00 0.00 55 1003.3
20200919162014 70 50 5.0 9.0 0.00 0.00 0.00 54 1003.3
20200919161515 70 11 6.0 9.0 0.00 0.00 0.00 54 1003.4
20200919161010 71 17 6.0 10.0 0.00 0.00 0.00 53 1003.2
20200919160514 71 51 7.0 13.0 0.00 0.00 0.00 53 1003.3
20200919160014 71 52 7.0 13.0 0.00 0.00 0.00 52 1003.3
20200919155512 71 55 9.0 15.0 0.00 0.00 0.00 52 1003.4
20200919155006 71 51 10.0 15.0 0.00 0.00 0.00 52 1003.0
20200919154523 71 34 10.0 15.0 0.00 0.00 0.00 52 1003.4
20200919154010 71 41 10.0 16.0 0.00 0.00 0.00 51 1003.2
20200919153510 71 32 9.0 16.0 0.00 0.00 0.00 51 1003.2
20200919153008 72 35 9.0 16.0 0.00 0.00 0.00 51 1003.1
20200919152512 72 46 10.0 17.0 0.00 0.00 0.00 51 1003.2
20200919152010 72 33 11.0 17.0 0.00 0.00 0.00 51 1003.0
20200919151508 72 22 11.0 17.0 0.00 0.00 0.00 51 1002.9
20200919151014 71 30 11.0 17.0 0.00 0.00 0.00 51 1002.9
20200919150510 72 37 10.0 16.0 0.00 0.00 0.00 51 1002.9
20200919150026 72 67 10.0 17.0 0.00 0.00 0.00 52 1003.0
20200919145511 72 72 11.0 17.0 0.00 0.00 0.00 52 1003.1
20200919145012 72 57 11.0 23.0 0.00 0.00 0.00 51 1003.0
20200919144513 72 50 12.0 23.0 0.00 0.00 0.00 51 1003.1
20200919144007 72 33 11.0 19.0 0.00 0.00 0.00 52 1003.1
20200919143515 72 31 10.0 19.0 0.00 0.00 0.00 52 1002.9
20200919143025 71 53 10.0 17.0 0.00 0.00 0.00 52 1003.3
20200919142509 71 61 9.0 17.0 0.00 0.00 0.00 53 1003.4
20200919142009 71 30 9.0 16.0 0.00 0.00 0.00 52 1003.2
20200919141509 71 22 11.0 18.0 0.00 0.00 0.00 52 1003.3
20200919141016 71 25 11.0 18.0 0.00 0.00 0.00 51 1003.2
20200919140510 72 27 10.0 17.0 0.00 0.00 0.00 51 1003.3
20200919140021 72 46 10.0 17.0 0.00 0.00 0.00 51 1003.2
20200919135511 72 45 11.0 17.0 0.00 0.00 0.00 52 1003.3
20200919135004 71 35 11.0 17.0 0.00 0.00 0.00 54 1003.3
20200919134541 71 34 11.0 18.0 0.00 0.00 0.00 53 1003.2
20200919134006 71 33 10.0 18.0 0.00 0.00 0.00 54 1003.5
20200919133513 71 30 10.0 18.0 0.00 0.00 0.00 54 1003.3
20200919133017 70 47 9.0 17.0 0.00 0.00 0.00 55 1003.6
20200919132517 69 62 8.0 15.0 0.00 0.00 0.00 60 1003.3
20200919132011 69 31 8.0 15.0 0.00 0.00 0.00 59 1003.4
20200919131517 69 38 8.0 15.0 0.00 0.00 0.00 60 1003.4
20200919131017 69 42 8.0 15.0 0.00 0.00 0.00 59 1003.6
20200919130510 69 35 7.0 12.0 0.00 0.00 0.00 59 1003.8
20200919130016 69 30 7.0 13.0 0.00 0.00 0.00 59 1003.7
20200919125509 69 34 7.0 13.0 0.00 0.00 0.00 60 1003.7
20200919125011 68 47 8.0 15.0 0.00 0.00 0.00 60 1003.8
20200919124519 68 47 8.0 15.0 0.00 0.00 0.00 60 1004.0
20200919124012 68 47 9.0 14.0 0.00 0.00 0.00 60 1004.1
20200919123506 68 41 9.0 15.0 0.00 0.00 0.00 59 1004.0
20200919123030 69 37 9.0 15.0 0.00 0.00 0.00 57 1004.2
20200919122508 70 29 8.0 14.0 0.00 0.00 0.00 59 1004.3
20200919122006 69 46 9.0 16.0 0.00 0.00 0.00 60 1004.0
20200919121522 69 49 9.0 16.0 0.00 0.00 0.00 60 1004.4
20200919121009 69 32 9.0 14.0 0.00 0.00 0.00 60 1004.1
20200919120510 68 55 9.0 15.0 0.00 0.00 0.00 60 1004.2
20200919120017 68 61 9.0 15.0 0.00 0.00 0.00 61 1004.1
20200919115509 67 29 9.0 17.0 0.00 0.00 0.00 61 1003.9
20200919115007 67 13 9.0 17.0 0.00 0.00 0.00 61 1003.8
20200919114526 67 26 10.0 16.0 0.00 0.00 0.00 62 1004.0
20200919114007 66 46 9.0 16.0 0.00 0.00 0.00 62 1004.1
20200919113515 66 56 8.0 16.0 0.00 0.00 0.00 62 1004.2
20200919113007 67 30 6.0 11.0 0.00 0.00 0.00 62 1004.3
20200919112515 66 12 7.0 11.0 0.00 0.00 0.00 63 1004.3
20200919112009 65 43 8.0 14.0 0.00 0.00 0.00 64 1004.6
20200919111521 65 54 8.0 15.0 0.00 0.00 0.00 64 1004.3
20200919111007 65 41 8.0 15.0 0.00 0.00 0.00 65 1004.5
20200919110511 64 57 8.0 13.0 0.00 0.00 0.00 66 1004.6
20200919110009 64 52 7.0 13.0 0.00 0.00 0.00 66 1004.5
20200919105514 64 25 7.0 14.0 0.00 0.00 0.00 67 1004.5
20200919105012 64 35 7.0 14.0 0.00 0.00 0.00 68 1004.9
20200919104517 63 25 7.0 12.0 0.00 0.00 0.00 71 1004.5
20200919104009 63 356 8.0 13.0 0.00 0.00 0.00 70 1004.8
20200919103509 64 23 7.0 13.0 0.00 0.00 0.00 65 1004.9
20200919103030 64 27 7.0 16.0 0.00 0.00 0.00 66 1004.8
20200919102511 64 43 8.0 16.0 0.00 0.00 0.00 66 1004.7
20200919102009 63 56 8.0 15.0 0.00 0.00 0.00 70 1004.7
20200919101519 63 53 8.0 14.0 0.00 0.00 0.00 70 1004.8
20200919101008 63 46 8.0 14.0 0.00 0.00 0.00 71 1004.7
20200919100508 63 30 8.0 16.0 0.00 0.00 0.00 71 1004.9
20200919100023 62 38 9.0 16.0 0.00 0.00 0.00 71 1004.7
20200919095508 62 43 9.0 16.0 0.00 0.00 0.00 71 1004.9
20200919095007 62 27 9.0 16.0 0.00 0.00 0.00 71 1004.9
20200919094517 62 43 9.0 15.0 0.00 0.00 0.00 72 1005.1
20200919094016 61 59 9.0 17.0 0.00 0.00 0.00 73 1005.0
20200919093511 61 53 10.0 17.0 0.00 0.00 0.00 73 1005.0
20200919093009 61 27 10.0 17.0 0.00 0.00 0.00 74 1005.0
20200919092510 60 25 9.0 17.0 0.00 0.00 0.00 75 1005.1
20200919092030 60 39 8.0 16.0 0.00 0.00 0.00 77 1005.2
20200919091520 59 56 8.0 13.0 0.00 0.00 0.00 79 1005.0
20200919091013 58 61 8.0 13.0 0.00 0.00 0.00 79 1005.2
20200919090507 58 36 8.0 11.0 0.00 0.00 0.00 80 1005.2
20200919090021 58 32 8.0 12.0 0.00 0.00 0.00 80 1005.3
20200919085505 58 38 8.0 14.0 0.00 0.00 0.00 80 1005.2
20200919085011 58 30 8.0 16.0 0.00 0.00 0.00 80 1005.5
20200919084519 58 17 8.0 16.0 0.00 0.00 0.00 80 1005.2
20200919084007 58 17 8.0 15.0 0.00 0.00 0.00 81 1005.2
20200919083511 57 42 8.0 15.0 0.00 0.00 0.00 82 1005.5
20200919083029 57 45 7.0 12.0 0.00 0.00 0.00 82 1005.5
20200919082508 57 23 7.0 11.0 0.00 0.00 0.00 84 1005.6
20200919082019 56 40 7.0 11.0 0.00 0.00 0.00 84 1005.6
20200919081508 56 47 7.0 11.0 0.00 0.00 0.00 84 1005.4
20200919081009 56 53 7.0 12.0 0.00 0.00 0.00 85 1005.4
20200919080506 55 64 7.0 12.0 0.00 0.00 0.00 85 1005.3
20200919080011 55 45 7.0 15.0 0.00 0.00 0.00 85 1005.3
20200919075507 55 29 7.0 15.0 0.00 0.00 0.00 85 1005.4
20200919075013 55 26 6.0 15.0 0.00 0.00 0.00 86 1005.5
20200919074524 55 34 6.0 9.0 0.00 0.00 0.00 86 1005.4
20200919074010 55 52 5.0 9.0 0.00 0.00 0.00 87 1005.3
20200919073507 55 27 5.0 8.0 0.00 0.00 0.00 87 1005.3
20200919073008 54 26 6.0 9.0 0.00 0.00 0.00 88 1005.5
20200919072512 54 24 6.0 11.0 0.00 0.00 0.00 92 1005.5
20200919072005 54 5 7.0 12.0 0.00 0.00 0.00 92 1005.4
20200919071519 54 38 7.0 12.0 0.00 0.00 0.00 93 1005.5
20200919071008 54 54 7.0 11.0 0.00 0.00 0.00 94 1005.4
20200919070517 53 30 6.0 11.0 0.00 0.00 0.00 94 1005.2
20200919070024 53 22 5.0 9.0 0.00 0.00 0.00 94 1005.4
20200919065510 53 25 6.0 9.0 0.00 0.00 0.00 95 1005.3
20200919065015 53 31 7.0 14.0 0.00 0.00 0.00 95 1005.2
20200919064519 53 18 8.0 14.0 0.00 0.00 0.00 95 1005.3
20200919064016 52 36 7.0 11.0 0.00 0.00 0.00 95 1005.2
20200919063510 52 55 7.0 11.0 0.00 0.00 0.00 95 1005.2
20200919063020 52 54 6.0 10.0 0.00 0.00 0.00 95 1005.3
20200919062507 52 42 6.0 11.0 0.00 0.00 0.00 95 1005.4
20200919062009 52 25 5.0 11.0 0.00 0.00 0.00 94 1005.0
20200919061512 52 32 5.0 8.0 0.00 0.00 0.00 94 1005.3
20200919061008 52 42 6.0 8.0 0.00 0.00 0.00 94 1005.4
20200919060507 52 54 5.0 8.0 0.00 0.00 0.00 93 1005.4
20200919060018 52 61 5.0 8.0 0.00 0.00 0.00 93 1005.4
20200919055511 52 44 4.0 8.0 0.00 0.00 0.00 93 1005.4
20200919055009 52 35 4.0 7.0 0.00 0.00 0.00 92 1005.3
20200919054513 52 36 4.0 7.0 0.00 0.00 0.00 92 1005.4
20200919054011 52 30 4.0 7.0 0.00 0.00 0.00 92 1005.4
20200919053509 52 354 3.0 8.0 0.00 0.00 0.00 92 1005.5
20200919053042 52 349 4.0 8.0 0.00 0.00 0.00 92 1005.3
20200919052510 52 15 4.0 8.0 0.00 0.00 0.00 92 1005.5
20200919052006 52 14 4.0 7.0 0.00 0.00 0.00 91 1005.5
20200919051511 52 10 4.0 7.0 0.00 0.00 0.00 91 1005.3
20200919051005 52 30 4.0 8.0 0.00 0.00 0.00 91 1005.6
20200919050508 53 34 5.0 9.0 0.00 0.00 0.00 91 1005.3
20200919050009 53 18 5.0 9.0 0.00 0.00 0.00 91 1005.6
20200919045514 53 47 4.0 9.0 0.00 0.00 0.00 92 1005.1
20200919045014 53 81 4.0 9.0 0.00 0.00 0.00 92 1005.1
20200919044516 53 61 4.0 8.0 0.00 0.00 0.00 92 1005.1
20200919044020 53 48 5.0 8.0 0.00 0.00 0.00 92 1005.3
20200919043508 52 55 5.0 8.0 0.00 0.00 0.00 92 1005.1
20200919043010 52 65 5.0 8.0 0.00 0.00 0.00 91 1005.2
20200919042511 52 54 4.0 8.0 0.00 0.00 0.00 91 1005.6
20200919042019 52 18 4.0 8.0 0.00 0.00 0.00 91 1005.4
20200919041514 52 5 4.0 8.0 0.00 0.00 0.00 90 1005.3
20200919041010 52 29 4.0 8.0 0.00 0.00 0.00 90 1005.5
20200919040506 53 39 5.0 8.0 0.00 0.00 0.00 90 1005.6
20200919040024 53 44 5.0 8.0 0.00 0.00 0.00 90 1005.7
20200919035504 53 83 5.0 8.0 0.00 0.00 0.00 89 1005.6
20200919035010 53 74 4.0 8.0 0.00 0.00 0.00 89 1005.6
20200919034511 53 51 4.0 8.0 0.00 0.00 0.00 89 1005.3
20200919034018 53 48 5.0 9.0 0.00 0.00 0.00 88 1005.6
20200919033509 53 45 6.0 9.0 0.00 0.00 0.00 88 1005.3
20200919033018 53 42 6.0 10.0 0.00 0.00 0.00 87 1005.4
20200919032510 53 54 6.0 10.0 0.00 0.00 0.00 87 1005.7
20200919032008 54 51 6.0 10.0 0.00 0.00 0.00 87 1005.8
20200919031513 54 39 6.0 9.0 0.00 0.00 0.00 87 1005.8
20200919031006 54 42 7.0 10.0 0.00 0.00 0.00 87 1005.8
20200919030512 54 51 7.0 11.0 0.00 0.00 0.00 86 1005.8
20200919030021 54 59 7.0 11.0 0.00 0.00 0.00 86 1005.5
20200919025508 54 52 7.0 12.0 0.00 0.00 0.00 86 1005.5
20200919025005 54 47 7.0 12.0 0.00 0.00 0.00 86 1005.4
20200919024520 54 47 7.0 11.0 0.00 0.00 0.00 86 1005.6
20200919024010 54 48 7.0 11.0 0.00 0.00 0.00 85 1005.8
20200919023515 54 36 7.0 11.0 0.00 0.00 0.00 85 1005.6
20200919023020 54 25 6.0 9.0 0.00 0.00 0.00 85 1005.8
20200919022513 54 34 6.0 9.0 0.00 0.00 0.00 85 1005.9
20200919022012 54 49 5.0 8.0 0.00 0.00 0.00 85 1005.9
20200919021513 54 52 5.0 8.0 0.00 0.00 0.00 84 1005.7
20200919021016 54 43 5.0 8.0 0.00 0.00 0.00 84 1006.0
20200919020506 54 32 4.0 8.0 0.00 0.00 0.00 84 1006.1
20200919020020 54 34 4.0 7.0 0.00 0.00 0.00 83 1006.2
20200919015505 54 44 4.0 7.0 0.00 0.00 0.00 83 1006.0
20200919015008 54 26 5.0 9.0 0.00 0.00 0.00 83 1006.3
20200919014509 54 19 5.0 9.0 0.00 0.00 0.00 82 1006.1
20200919014008 54 27 4.0 8.0 0.00 0.00 0.00 80 1006.2
20200919013510 54 23 5.0 10.0 0.00 0.00 0.00 80 1006.2
20200919013019 54 22 6.0 10.0 0.00 0.00 0.00 79 1006.0
20200919012512 55 22 5.0 9.0 0.00 0.00 0.00 79 1006.4
20200919012007 55 23 5.0 9.0 0.00 0.00 0.00 78 1006.4
20200919011519 55 27 5.0 9.0 0.00 0.00 0.00 78 1006.3
20200919011008 55 34 5.0 8.0 0.00 0.00 0.00 78 1006.4
20200919010509 55 64 5.0 8.0 0.00 0.00 0.00 77 1006.5
20200919010021 55 51 5.0 8.0 0.00 0.00 0.00 77 1006.6
20200919005510 55 30 6.0 10.0 0.00 0.00 0.00 77 1006.4
20200919005005 55 45 6.0 10.0 0.00 0.00 0.00 76 1006.5
20200919004516 55 48 6.0 9.0 0.00 0.00 0.00 76 1006.7
20200919004011 55 35 6.0 8.0 0.00 0.00 0.00 75 1006.7
20200919003505 56 30 5.0 8.0 0.00 0.00 0.00 75 1006.7
20200919003014 56 26 5.0 8.0 0.00 0.00 0.00 75 1006.7
20200919002507 56 30 4.0 8.0 0.00 0.00 0.00 75 1006.7
20200919002009 56 39 4.0 7.0 0.00 0.00 0.00 74 1006.7
20200919001520 56 40 3.0 7.0 0.00 0.00 0.00 73 1006.8
20200919001009 56 10 3.0 6.0 0.00 0.00 0.00 73 1006.7
20200919000513 56 1 4.0 8.0 0.00 0.00 0.00 72 1007.0
20200919000022 56 12 4.0 8.0 0.00 0.00 0.00 72 1007.0
20200918235505 56 15 4.0 8.0 0.00 0.00 0.00 72 1007.0
20200918235006 56 28 3.0 6.0 0.00 0.00 0.00 72 1007.1
20200918234508 56 43 4.0 7.0 0.00 0.00 0.00 71 1007.1
20200918234010 56 55 4.0 7.0 0.00 0.00 0.00 71 1007.4
20200918233507 57 45 4.0 8.0 0.00 0.00 0.00 71 1007.2
20200918233023 57 41 5.0 9.0 0.00 0.00 0.00 70 1007.3
20200918232509 57 44 5.0 9.0 0.00 0.00 0.00 70 1007.0
20200918232012 57 36 5.0 8.0 0.00 0.00 0.00 70 1007.4
20200918231513 57 38 5.0 9.0 0.00 0.00 0.00 70 1007.3
20200918231011 57 46 5.0 9.0 0.00 0.00 0.00 70 1007.2
20200918230514 57 34 5.0 9.0 0.00 0.00 0.00 69 1007.4
20200918230018 57 38 4.0 9.0 0.00 0.00 0.00 69 1007.1
20200918225506 57 38 4.0 8.0 0.00 0.00 0.00 69 1007.4
20200918225005 57 36 4.0 8.0 0.00 0.00 0.00 69 1007.5
20200918224508 57 33 4.0 8.0 0.00 0.00 0.00 68 1007.5
20200918224007 57 26 4.0 8.0 0.00 0.00 0.00 68 1007.5
20200918223511 58 32 4.0 6.0 0.00 0.00 0.00 68 1007.4
20200918223013 58 41 4.0 6.0 0.00 0.00 0.00 68 1007.4
20200918222509 58 49 4.0 8.0 0.00 0.00 0.00 67 1007.6
20200918222006 58 39 4.0 8.0 0.00 0.00 0.00 67 1007.6
20200918221516 58 50 4.0 8.0 0.00 0.00 0.00 67 1007.5
20200918221006 58 72 4.0 8.0 0.00 0.00 0.00 67 1007.6
20200918220512 58 48 4.0 7.0 0.00 0.00 0.00 67 1007.5
20200918220008 58 32 3.0 6.0 0.00 0.00 0.00 66 1007.5
20200918215506 58 48 3.0 5.0 0.00 0.00 0.00 66 1007.6
20200918215005 58 35 3.0 6.0 0.00 0.00 0.00 66 1007.6
20200918214507 58 355 3.0 7.0 0.00 0.00 0.00 65 1007.6
20200918214006 58 352 3.0 7.0 0.00 0.00 0.00 65 1007.6
20200918213504 59 29 3.0 7.0 0.00 0.00 0.00 64 1007.9
20200918213010 59 26 4.0 8.0 0.00 0.00 0.00 64 1007.6
20200918212509 59 29 4.0 8.0 0.00 0.00 0.00 64 1007.7
20200918212006 59 50 5.0 8.0 0.00 0.00 0.00 64 1007.6
20200918211505 59 52 5.0 8.0 0.00 0.00 0.00 64 1007.6
20200918211007 59 39 4.0 8.0 0.00 0.00 0.00 65 1007.8
20200918210507 59 54 4.0 7.0 0.00 0.00 0.00 65 1007.8
20200918210006 59 62 4.0 7.0 0.00 0.00 0.00 65 1007.8
20200918205508 59 65 4.0 7.0 0.00 0.00 0.00 65 1007.9
20200918205005 59 64 4.0 5.0 0.00 0.00 0.00 65 1007.9
20200918204507 59 61 3.0 5.0 0.00 0.00 0.00 65 1007.9
20200918204007 59 63 3.0 4.0 0.00 0.00 0.00 65 1008.0
20200918203504 59 63 3.0 4.0 0.00 0.00 0.00 64 1007.9
20200918203007 59 53 3.0 4.0 0.00 0.00 0.00 64 1008.1
20200918202505 60 45 3.0 4.0 0.00 0.00 0.00 64 1008.1
20200918202011 60 54 3.0 5.0 0.00 0.00 0.00 63 1008.1
20200918201509 60 70 3.0 6.0 0.00 0.00 0.00 63 1008.0
20200918201005 60 64 3.0 6.0 0.00 0.00 0.00 63 1007.9
20200918200505 60 51 3.0 4.0 0.00 0.00 0.00 62 1008.1
20200918200020 60 63 2.0 4.0 0.00 0.00 0.00 62 1007.9
20200918195508 60 54 3.0 4.0 0.00 0.00 0.00 62 1007.9
20200918195005 60 64 3.0 5.0 0.00 0.00 0.00 62 1007.8
20200918194515 60 74 3.0 5.0 0.00 0.00 0.00 61 1008.0
20200918194014 60 46 2.0 4.0 0.00 0.00 0.00 61 1007.9
20200918193507 60 41 1.0 4.0 0.00 0.00 0.00 61 1007.9
20200918193007 61 52 1.0 4.0 0.00 0.00 0.00 60 1007.8
20200918192506 61 51 2.0 4.0 0.00 0.00 0.00 60 1007.7
20200918192006 62 44 3.0 5.0 0.00 0.00 0.00 60 1007.8
20200918191516 62 33 4.0 8.0 0.00 0.00 0.00 59 1007.5
20200918191006 62 49 5.0 9.0 0.00 0.00 0.00 59 1007.4
20200918190504 62 67 5.0 9.0 0.00 0.00 0.00 59 1007.6
20200918190010 62 50 5.0 8.0 0.00 0.00 0.00 59 1007.4
20200918185505 63 37 5.0 8.0 0.00 0.00 0.00 59 1007.3
20200918185006 63 41 5.0 8.0 0.00 0.00 0.00 59 1007.3
20200918184510 63 49 4.0 8.0 0.00 0.00 0.00 60 1007.2
20200918184005 63 48 3.0 6.0 0.00 0.00 0.00 60 1007.1
20200918183505 63 25 3.0 6.0 0.00 0.00 0.00 60 1007.0
20200918183019 63 19 2.0 5.0 0.00 0.00 0.00 60 1007.2
20200918182510 64 52 2.0 4.0 0.00 0.00 0.00 55 1007.1